Regional Weather Roundup
Issued by NWS Kansas City/Pleasant Hill, MO

Home | Current Version | Previous Version | Graphics & Text | Print | Product List | Glossary Off
Versions: 1 2 3 4 5 6 7 8 9 10 11 12 13 14 15 16 17 18 19 20 21 22 23 24 25 26 27

000
ASUS43 KEAX 042310
RWREAX

WEATHER ROUNDUP FOR EASTERN KANSAS AND NORTHWEST MISSOURI
NATIONAL WEATHER SERVICE KANSAS CITY/PLEASANT HILL MO
600 PM CDT WED MAY 04 2016

KSZ040-057-103>105-MOZ028-029-037-043-050000-
...KANSAS CITY METROPOLITAN AREA...

CITY           SKY/WX    TMP DP  RH WIND       PRES   REMARKS
K.C. INTL      SUNNY     68  38  33 N14       29.97S
K.C. DOWNTOWN  SUNNY     70  35  27 N14       29.96S
LEES SUMMIT    SUNNY     69  38  32 N15G25    29.97S
OLATHE - IXD   SUNNY     68  38  33 NW15      29.99S
OLATHE - OJC   SUNNY     68  35  29 NW14G23   29.98R
LAWRENCE       SUNNY     70  37  29 N16       29.99S

$$

MOZ001>008-011>017-020>025-030>033-038>040-044>046-053-054-050000-
...NORTHERN AND CENTRAL MISSOURI...

CITY           SKY/WX    TMP DP  RH WIND       PRES   REMARKS
ST. JOSEPH     SUNNY     70  35  27 N18G25    29.98S
MOSBY          CLEAR     68  34  28 N13G20    29.97S
WHITEMAN AFB   MOSUNNY   68  38  33 N14       29.93S
CLINTON        SUNNY     68  41  37 NW14G20   29.95S
SEDALIA        SUNNY     69  37  30 NW17      29.94S
WARSAW         NOT AVBL
CHILLICOTHE      N/A     68  37  32 VRB7G16   29.96S
KIRKSVILLE     SUNNY     64  33  31 N15G23    29.94R

$$

MOZ041-047>049-056>058-063>065-088>090-097-050000-
...EASTERN AND SOUTHERN MISSOURI...

CITY           SKY/WX    TMP DP  RH WIND       PRES   REMARKS
ST. LOUIS INTL MOSUNNY   64  36  35 NW15G22   29.86R
SPIRIT OF STL  MOSUNNY   65  36  34 NW14G26   29.86R
COLUMBIA       SUNNY     67  33  28 N20G28    29.91R
JEFFERSON CITY SUNNY     68  33  27 NW14G21   29.90R
ROLLA          MOSUNNY   65  38  36 N14G25    29.88R
OSAGE BEACH    SUNNY     66  36  32 NW10G21   29.92R
SPRINGFIELD    SUNNY     69  39  33 NW15      29.93R
BRANSON        SUNNY     68  37  32 NW13G22   29.93R
JOPLIN         SUNNY     70  39  32 N16G23    29.97R
WEST PLAINS    SUNNY     69  34  27 NW16G26   29.88R

$$

IAZ060-094-KSZ022-034>040-054-083-096-NEZ052-066-093-050000-
...KANSAS...SOUTHEAST NEBRASKA AND IOWA...

CITY           SKY/WX    TMP DP  RH WIND       PRES   REMARKS
TOPEKA         SUNNY     71  37  28 NW13G18   29.99S
MANHATTAN      SUNNY     73  35  25 VRB6      30.01S
EMPORIA        SUNNY     71  36  27 N16G23    30.00S
CHANUTE        SUNNY     72  37  28 N13       29.98S
WICHITA        SUNNY     73  32  22 N16       30.02F
OMAHA          MOSUNNY   69  38  32 N13       30.00S
LINCOLN        SUNNY     72  32  23 N13       30.03F
FALLS CITY     SUNNY     69  36  29 N15G22    29.99S
LAMONI         SUNNY     64  37  36 N14G23    29.96S
DES MOINES     MOSUNNY   67  30  25 NW18G30   29.94F

$$





USA.gov is the U.S. government's official web portal to all federal, state and local government web resources and services.